Pipestone, MN

6:22 PM CDT on May 26, 2017 (GMT -0500)
Pipestone Municipal

Weather History for KPQN - March, 2014

Change the Weather History Date:

Sunday, March 30, 2014

  Actual Average Record
Temperature  
Mean Temperature 50 °F -  
Max Temperature 62 °F 44 °F 71 °F (2015)
Min Temperature 37 °F 28 °F 15 °F (2003)
Degree Days  
Heating Degree Days 16    
Moisture  
Dew Point 35 °F    
Average Humidity 61    
Maximum Humidity 81    
Minimum Humidity 37    
Precipitation  
Precipitation 0.00 in - - ()
Sea Level Pressure  
Sea Level Pressure 29.75 in    
Wind  
Wind Speed 14 mph (South)    
Max Wind Speed 22 mph    
Max Gust Speed 26 mph    
Visibility 9 miles    
Events      
Averages and records for this station are not official NWS values.
T = Trace of Precipitation, MM = Missing Value Source: NWS Daily Summary

Daily Weather History Graph

Daily Weather History Graph

Search for Another Location

Airport or City:

Trip Planner

Search our weather history database for the weather conditions in past years. The results will help you decide how hot, cold, wet, or windy it might be!

Date:

Astronomy

Mar. 30, 2014 Rise Set
Actual Time 7:10 AM CDT 7:49 PM CDT
Civil Twilight 6:41 AM CDT 8:18 PM CDT
Nautical Twilight 6:06 AM CDT 8:53 PM CDT
Astronomical Twilight 5:31 AM CDT 9:29 PM CDT
Moon 6:56 AM CDT (3/30) 8:04 PM CDT (3/30)
Length of Visible Light 13h 37m
Length of Day
12h 39m
Waning Crescent, 0% of the Moon is Illuminated
Mar 30
Waning Crescent
Mar 30
New
Apr 7
First Quarter
Apr 15
Full
Apr 22
Last Quarter

Hourly Weather History & Observations

Time (CDT) Temp. Windchill Dew Point Humidity Pressure Visibility Wind Dir Wind Speed Gust Speed Precip Events Conditions
12:13 AM 39.2 °F 29.0 °F 30.2 °F 70% 29.87 in 10.0 mi South 21.9 mph 26.5 mph N/A   Clear
12:33 AM 39.2 °F 29.6 °F 30.2 °F 70% 29.87 in 10.0 mi South 19.6 mph 26.5 mph N/A   Clear
12:53 AM 39.2 °F 29.8 °F 30.2 °F 70% 29.86 in 10.0 mi South 18.4 mph 25.3 mph N/A   Clear
1:13 AM 39.2 °F 29.8 °F 30.2 °F 70% 29.85 in 10.0 mi South 18.4 mph - N/A   Clear
1:33 AM 39.2 °F 29.6 °F 30.2 °F 70% 29.84 in 10.0 mi South 19.6 mph - N/A   Clear
1:53 AM 39.2 °F 29.6 °F 30.2 °F 70% 29.83 in 10.0 mi South 19.6 mph - N/A   Clear
2:13 AM 39.2 °F 29.6 °F 30.2 °F 70% 29.82 in 10.0 mi South 19.6 mph - N/A   Clear
2:33 AM 39.2 °F 29.8 °F 30.2 °F 70% 29.82 in 10.0 mi South 18.4 mph 25.3 mph N/A   Clear
2:53 AM 39.2 °F 29.8 °F 30.2 °F 70% 29.81 in 10.0 mi South 18.4 mph - N/A   Clear
3:13 AM 39.2 °F 30.2 °F 30.2 °F 70% 29.80 in 10.0 mi South 17.3 mph - N/A   Clear
3:33 AM 39.2 °F 30.2 °F 30.2 °F 70% 29.80 in 7.0 mi South 17.3 mph - N/A   Clear
3:53 AM 37.4 °F 27.5 °F 30.2 °F 75% 29.79 in 7.0 mi South 18.4 mph - N/A   Clear
4:13 AM 37.4 °F 28.2 °F 30.2 °F 75% 29.78 in 7.0 mi South 16.1 mph - N/A   Clear
4:33 AM 37.4 °F 28.5 °F 32.0 °F 81% 29.78 in 7.0 mi South 15.0 mph - N/A   Clear
4:53 AM 37.4 °F 29.3 °F 32.0 °F 81% 29.79 in 7.0 mi South 12.7 mph - N/A   Clear
5:13 AM 37.4 °F 28.5 °F 32.0 °F 81% 29.78 in 7.0 mi South 15.0 mph - N/A   Clear
5:33 AM 37.4 °F 28.5 °F 32.0 °F 81% 29.78 in 7.0 mi South 15.0 mph - N/A   Clear
5:53 AM 37.4 °F 28.2 °F 32.0 °F 81% 29.78 in 7.0 mi SSW 16.1 mph - N/A   Clear
6:13 AM 39.2 °F 30.5 °F 32.0 °F 75% 29.78 in 7.0 mi South 16.1 mph - N/A   Clear
6:34 AM 37.4 °F 28.5 °F 32.0 °F 81% 29.78 in 7.0 mi South 15.0 mph - N/A   Clear
6:53 AM 37.4 °F 28.9 °F 32.0 °F 81% 29.79 in 7.0 mi SSW 13.8 mph - N/A   Clear
7:13 AM 37.4 °F 29.3 °F 32.0 °F 81% 29.79 in 7.0 mi SSW 12.7 mph - N/A   Clear
7:33 AM 37.4 °F 30.3 °F 32.0 °F 81% 29.79 in 7.0 mi South 10.4 mph - N/A   Clear
7:53 AM 39.2 °F 32.5 °F 32.0 °F 75% 29.80 in 7.0 mi SSW 10.4 mph - N/A   Clear
8:13 AM 39.2 °F 32.0 °F 33.8 °F 81% 29.80 in 7.0 mi SSW 11.5 mph - N/A   Clear
8:33 AM 42.8 °F 35.8 °F 33.8 °F 70% 29.80 in 10.0 mi SSW 13.8 mph - N/A   Clear
8:53 AM 42.8 °F 35.8 °F 33.8 °F 70% 29.80 in 10.0 mi SSW 13.8 mph 21.9 mph N/A   Clear
9:13 AM 44.6 °F 38.1 °F 33.8 °F 66% 29.80 in 10.0 mi SSW 13.8 mph - N/A   Clear
9:33 AM 46.4 °F 39.8 °F 35.6 °F 66% 29.80 in 10.0 mi SSW 16.1 mph - N/A   Clear
9:53 AM 46.4 °F 40.1 °F 35.6 °F 66% 29.79 in 10.0 mi SSW 15.0 mph - N/A   Clear
10:13 AM 48.2 °F - 35.6 °F 62% 29.79 in 10.0 mi SSW 18.4 mph - N/A   Clear
10:33 AM 50.0 °F - 35.6 °F 58% 29.79 in 10.0 mi SSW 15.0 mph - N/A   Clear
10:53 AM 51.8 °F - 35.6 °F 54% 29.78 in 10.0 mi SW 16.1 mph - N/A   Clear
11:13 AM 53.6 °F - 35.6 °F 51% 29.78 in 10.0 mi SSW 16.1 mph - N/A   Clear
11:33 AM 53.6 °F - 35.6 °F 51% 29.78 in 10.0 mi SW 13.8 mph - N/A   Clear
11:53 AM 53.6 °F - 35.6 °F 51% 29.78 in 10.0 mi SW 11.5 mph - N/A   Clear
12:14 PM 53.6 °F - 35.6 °F 51% 29.78 in 10.0 mi SW 13.8 mph - N/A   Clear
12:33 PM 55.4 °F - 35.6 °F 47% 29.78 in 10.0 mi SW 12.7 mph - N/A   Clear
12:53 PM 55.4 °F - 35.6 °F 47% 29.77 in 10.0 mi SW 8.1 mph - N/A   Clear
1:14 PM 57.2 °F - 35.6 °F 44% 29.77 in 10.0 mi SW 6.9 mph - N/A   Clear
1:33 PM 57.2 °F - 35.6 °F 44% 29.77 in 10.0 mi WSW 5.8 mph - N/A   Clear
1:53 PM 57.2 °F - 35.6 °F 44% 29.77 in 10.0 mi West 4.6 mph - N/A   Clear
2:13 PM 57.2 °F - 35.6 °F 44% 29.76 in 10.0 mi SW 5.8 mph - N/A   Clear
2:33 PM 59.0 °F - 35.6 °F 42% 29.75 in 10.0 mi SSW 4.6 mph - N/A   Clear
2:53 PM 60.8 °F - 35.6 °F 39% 29.74 in 10.0 mi South 5.8 mph - N/A   Clear
3:13 PM 60.8 °F - 35.6 °F 39% 29.73 in 10.0 mi South 6.9 mph - N/A   Clear
3:33 PM 62.6 °F - 35.6 °F 37% 29.73 in 10.0 mi South 5.8 mph - N/A   Clear
3:53 PM 62.6 °F - 35.6 °F 37% 29.73 in 10.0 mi South 8.1 mph - N/A   Clear
4:13 PM 60.8 °F - 35.6 °F 39% 29.72 in 10.0 mi South 8.1 mph - N/A   Clear
4:33 PM 60.8 °F - 37.4 °F 42% 29.71 in 10.0 mi South 8.1 mph - N/A   Clear
4:53 PM 60.8 °F - 37.4 °F 42% 29.70 in 10.0 mi South 8.1 mph - N/A   Clear
5:13 PM 60.8 °F - 39.2 °F 45% 29.70 in 10.0 mi SSE 6.9 mph - N/A   Clear
5:33 PM 60.8 °F - 39.2 °F 45% 29.69 in 10.0 mi SSE 5.8 mph - N/A   Clear
5:53 PM 62.6 °F - 41.0 °F 45% 29.68 in 10.0 mi SSE 8.1 mph - N/A   Clear
6:13 PM 60.8 °F - 39.2 °F 45% 29.69 in 10.0 mi SSE 4.6 mph - N/A   Clear
6:33 PM 60.8 °F - 39.2 °F 45% 29.69 in 10.0 mi SSE 5.8 mph - N/A   Clear
6:53 PM 60.8 °F - 41.0 °F 48% 29.68 in 10.0 mi SE 4.6 mph - N/A   Clear
7:13 PM 57.2 °F - 42.8 °F 59% 29.68 in 10.0 mi ESE 5.8 mph - N/A   Clear
7:34 PM 55.4 °F - 41.0 °F 58% 29.68 in 10.0 mi ESE 4.6 mph - N/A   Clear
7:53 PM 55.4 °F - 39.2 °F 54% 29.68 in 10.0 mi ESE 6.9 mph - N/A   Clear
8:13 PM 55.4 °F - 39.2 °F 54% 29.68 in 10.0 mi East 8.1 mph - N/A   Clear
8:34 PM 51.8 °F - 39.2 °F 62% 29.68 in 10.0 mi East 4.6 mph - N/A   Clear
8:53 PM 50.0 °F - 39.2 °F 66% 29.67 in 10.0 mi East 6.9 mph - N/A   Clear
9:13 PM 51.8 °F - 37.4 °F 58% 29.66 in 10.0 mi East 8.1 mph - N/A   Clear
9:34 PM 48.2 °F - 37.4 °F 66% 29.66 in 10.0 mi ESE 8.1 mph - N/A   Clear
9:53 PM 48.2 °F - 37.4 °F 66% 29.65 in 10.0 mi ESE 8.1 mph - N/A   Clear
10:13 PM 48.2 °F - 37.4 °F 66% 29.65 in 10.0 mi East 6.9 mph - N/A   Clear
10:33 PM 46.4 °F 42.4 °F 37.4 °F 71% 29.64 in 10.0 mi ESE 8.1 mph - N/A   Clear
10:53 PM 46.4 °F 42.4 °F 37.4 °F 71% 29.63 in 10.0 mi ESE 8.1 mph - N/A   Clear
11:13 PM 46.4 °F 41.5 °F 37.4 °F 71% 29.62 in 10.0 mi ESE 10.4 mph - N/A   Clear
11:33 PM 46.4 °F 41.9 °F 37.4 °F 71% 29.62 in 10.0 mi ESE 9.2 mph - N/A   Clear
11:53 PM 46.4 °F 41.9 °F 37.4 °F 71% 29.61 in 10.0 mi ESE 9.2 mph - N/A   Clear